LexMAWeather

Lexington, Massachusetts, USA

20°F
1/23/2019 6:40am 
  • Lexington Conditions: Clear
  • Temperature: 19.6°F / -6.9°CWarmer 1.5°F than last hour.
  • Dew Point: 11.5°FIncreased 1.5°Fsince last hour.
  • Relative Humidity: 70
  • Wind: SSW 1 mph, 10-min avg: 2 mph, gust: 5 mph
  • Barometer: 30.34 inFalling 0.03  inHg/hr Falling Slowly
  • Visibility: 10 miles
  • Snow Today: 0.0 in
  •   
 Middlesex County - Special Weather Statement Special Weather Statement
 - SEE ALL ALERTS -

Regional Weather Roundup
for Boston, MA

        
000
ASUS41 KBOX 231110
RWRBOX

REGIONAL WEATHER ROUNDUP
NATIONAL WEATHER SERVICE BOSTON/NORTON MA
600 AM EST WED JAN 23 2019

NOTE:  "FAIR" INDICATES FEW OR NO CLOUDS BELOW 12,000 FEET WITH NO 
SIGNIFICANT WEATHER AND/OR OBSTRUCTIONS TO VISIBILITY.

MAZALL-231200-
EASTERN MASSACHUSETTS
  
CITY           SKY/WX    TMP DP  RH WIND       PRES   REMARKS
BOSTON         CLOUDY    22  10  60 S9        30.41F WCI  12          
BEVERLY        FAIR      21   8  57 S6        30.39F WCI  13          
LAWRENCE       FAIR      20   5  52 VRB5      30.40F WCI  13          
BEDFORD        FAIR      20   6  55 S5        30.37F WCI  13          
BLUE HILL        N/A     18   9  68 S17       30.34F WCI   3          
NORWOOD        FAIR      19  10  68 S5        30.41F WCI  12          
MARSHFIELD     FAIR      19  10  68 CALM      30.43F                  
PLYMOUTH       FAIR      15   9  76 S3        30.43F                  
TAUNTON        FAIR      16  12  84 SE3       30.41F                  
NEW BEDFORD    FAIR      14  12  92 CALM      30.42F                  
$$

MAZALL-231200-
CAPE COD AND THE ISLANDS
  
CITY           SKY/WX    TMP DP  RH WIND       PRES   REMARKS
FALMOUTH       FAIR      12   9  85 CALM      30.44F                  
HYANNIS        FAIR      13   7  77 CALM      30.43F                  
CHATHAM        FAIR      16   9  74 CALM      30.46F                  
PROVINCETOWN   FAIR      26  18  71 S8        30.45F WCI  18          
NANTUCKET      FAIR      32  24  72 SW14      30.46S WCI  22          
MARTHAS VNYRD  FAIR      12   8  84 CALM      30.43F                  
$$
 
MAZALL-231200-
CENTRAL AND WESTERN MASSACHUSETTS
  
CITY           SKY/WX    TMP DP  RH WIND       PRES   REMARKS
WORCESTER      FAIR      18  11  74 SW14      30.31F WCI   4          
FITCHBURG      FAIR      22   8  55 SE8       30.36F WCI  12          
ORANGE           N/A     11   3  70 NW3       30.34F                  
SPRINGFIELD    CLOUDY    17  10  72 S7        30.34F WCI   8          
WESTFIELD      FAIR      12   5  73 S3        30.34F                  
NORTH ADAMS    FAIR      23   5  46 SE7       30.26F WCI  15          
PITTSFIELD     FAIR      24   3  40 S6        30.22F WCI  17          
$$
 
RIZALL-231200-
RHODE ISLAND
  
CITY           SKY/WX    TMP DP  RH WIND       PRES   REMARKS
PROVIDENCE     CLOUDY    17  12  80 CALM      30.41F                  
NEWPORT        FAIR      26  19  74 S3        30.41F                  
BLOCK ISLAND   MOCLDY    36  27  69 SW17G23   30.41F WCI  25          
SMITHFIELD     FAIR      17  11  77 CALM      30.37F                  
WESTERLY       FAIR      19  16  88 CALM      30.41F                  
$$
 
CTZALL-231200-
CONNECTICUT
  
CITY           SKY/WX    TMP DP  RH WIND       PRES   REMARKS
BRADLEY INTL   CLOUDY    18  13  80 SE6       30.36F WCI  10          
HARTFORD       FAIR      20  14  77 S3        30.39F                  
BRIDGEPORT     FAIR      33  21  61 SW14      30.38F WCI  23          
DANBURY        FAIR      19  15  84 CALM      30.35F                  
GROTON         FAIR      34  25  69 SW17      30.40F WCI  23          
NEW HAVEN      FAIR      35  23  61 S12G21    30.38F WCI  27          
CHESTER        FAIR      30  23  74 S5        30.36F WCI  25          
MERIDEN        FAIR      17  13  84 CALM      30.37F                  
WILLIMANTIC    FAIR      11   9  92 CALM      30.41F                  
OXFORD         FAIR      22  17  81 S3        30.33                   
$$

MEZ002-015-021-024-NHZ003-005-008-011-012-014-VTZ005-008-231200-
NORTHERN NEW ENGLAND
  
CITY           SKY/WX    TMP DP  RH WIND       PRES   REMARKS
PORTLAND ME    CLOUDY    15  -1  49 VRB3      30.39F                  
BANGOR ME      MOCLDY     6  -4  63 CALM      30.37F                  
CONCORD NH     MOCLDY    18   0  45 S6        30.34F WCI  10          
MANCHESTER NH  FAIR      22   1  40 S10       30.34F WCI  11          
NASHUA NH      FAIR      17   6  62 CALM      30.36F                  
PORTSMOUTH NH  CLOUDY    15  -1  48 SE5       30.37  WCI   8          
JAFFREY NH     FAIR      21  10  62 S8        30.28F WCI  11          
KEENE NH       FAIR      14   7  73 CALM      30.32F                  
BURLINGTON VT  CLOUDY    22   3  44 S15G26    30.16F WCI   9          
MT. WASHINGTON SNOW      12  12 100 W52G59      N/A  VSB 1/16WCI -14  
$$

NYZ052-076-231200-
EASTERN NEW YORK
  
CITY           SKY/WX    TMP DP  RH WIND       PRES   REMARKS
ALBANY         CLOUDY    25   7  46 S15G26    30.26F WCI  13          
NEW YORK CITY  CLOUDY    31  15  52 S12       30.38F WCI  22          
$$
 
ANZALL-231200-
MARINE OBSERVATIONS
  
STATION/POSITION TIME  TEMP    WIND        PRES    VSBY  WAVE
                       AIR SEA DIR/SP/G                  HT/PER
                 (UTC) (F)     (DEG/KT/KT) (MB)    (MI)  (FT/S)
BOSTON BUOY      1050   28 41  190/ 16/ 17 1030.0F         2/ 3
BUZZARDS BAY     1000   34     220/ 18/ 19 1031.3F
NANTUCKET SOUND  1050   32 34  210/  6/ 10 1031.0F         0
MASS BAY-STELLWA 1004   29 40  220/ 17/ 19 1029.8F  1 7/8  2/ 3
ISLE OF SHOALS   1100   28     210/ 20/ 22 1028.8F
S OF BLOCK IS    1030      44                N/A           3/ 4
$$

......................KEY.........................
  SKY/WX - SKY CONDITION/PRESENT WEATHER
  TMP    - TEMPERATURE IN FAHRENHEIT
  DWPT   - DEWPOINT IN FAHRENHEIT
  RH     - RELATIVE HUMIDITY IN PERCENT
  WIND   - DIRECTION AND SPEED IN MPH
  PRES   - MEAN SEA LEVEL PRESSURE IN INCHES OF HG
  WCI    - WIND CHILL INDEX
  VSB    - VISIBILITY IN MILES
  HX     - HEAT INDEX
  TC     - TEMPERATURE IN CELSIUS
  VRB    - VARIABLE WIND DIRECTION
  N/A    - NOT AVAILABLE